| time (UTC) | temp F | wind direction | speed knots | gust knots | rain 1hr in | rain 24hr in | rain mn in | humidity % | barometer mb |
| 20260506030036 | 40 | 68 | 0.0 | 1.7 | 0.00 | 0.00 | 0.00 | 49 | 1005.0 |
| 20260506024534 | 40 | 257 | 0.0 | 0.0 | 0.00 | 0.00 | 0.00 | 48 | 1004.6 |
| 20260506023039 | 41 | 257 | 0.0 | 0.0 | 0.00 | 0.00 | 0.00 | 46 | 1004.3 |
| 20260506021534 | 42 | 257 | 0.0 | 0.9 | 0.00 | 0.00 | 0.00 | 47 | 1004.3 |
| 20260506020106 | 42 | 266 | 0.0 | 3.5 | 0.00 | 0.00 | 0.00 | 43 | 1004.3 |
| 20260506014532 | 44 | 37 | 1.7 | 9.6 | 0.00 | 0.00 | 0.00 | 40 | 1004.1 |
| 20260506013032 | 45 | 58 | 1.7 | 6.1 | 0.00 | 0.00 | 0.00 | 38 | 1003.7 |
| 20260506011534 | 46 | 66 | 0.0 | 1.7 | 0.00 | 0.00 | 0.00 | 35 | 1003.5 |
| 20260506010031 | 47 | 110 | 0.9 | 3.5 | 0.00 | 0.00 | 0.00 | 34 | 1003.5 |
| 20260506004534 | 48 | 240 | 1.7 | 5.2 | 0.00 | 0.00 | 0.00 | 31 | 1003.4 |
| 20260506003030 | 50 | 279 | 0.9 | 4.3 | 0.00 | 0.00 | 0.00 | 30 | 1003.1 |
| 20260506001530 | 50 | 169 | 0.0 | 6.1 | 0.00 | 0.00 | 0.00 | 27 | 1003.2 |
| 20260506000043 | 51 | 285 | 0.9 | 4.3 | 0.00 | 0.00 | 0.00 | 28 | 1003.0 |
| 20260505234528 | 52 | 255 | 2.6 | 7.8 | 0.00 | 0.00 | 0.00 | 27 | 1003.0 |
| 20260505233028 | 52 | 110 | 0.0 | 6.1 | 0.00 | 0.00 | 0.00 | 25 | 1002.9 |
| 20260505231529 | 52 | 226 | 0.9 | 6.1 | 0.00 | 0.00 | 0.00 | 28 | 1003.0 |
| 20260505230039 | 53 | 255 | 0.0 | 5.2 | 0.00 | 0.00 | 0.00 | 27 | 1003.0 |
| 20260505224523 | 51 | 265 | 4.3 | 7.8 | 0.00 | 0.00 | 0.00 | 29 | 1003.1 |
| 20260505223021 | 50 | 138 | 0.0 | 9.6 | 0.00 | 0.00 | 0.00 | 30 | 1003.6 |
| 20260505221519 | 51 | 252 | 0.0 | 9.6 | 0.00 | 0.00 | 0.00 | 29 | 1003.5 |
| 20260505220017 | 52 | 43 | 1.7 | 6.1 | 0.00 | 0.00 | 0.00 | 27 | 1003.9 |
| 20260505214515 | 51 | 262 | 0.9 | 11.3 | 0.00 | 0.00 | 0.00 | 29 | 1004.0 |
| 20260505213016 | 51 | 79 | 3.5 | 9.6 | 0.00 | 0.00 | 0.00 | 30 | 1004.4 |
| 20260505211518 | 48 | 98 | 2.6 | 8.7 | 0.00 | 0.00 | 0.00 | 33 | 1004.6 |
| 20260505210012 | 50 | 5 | 0.9 | 13.0 | 0.00 | 0.00 | 0.00 | 34 | 1004.8 |
| 20260505204510 | 48 | 37 | 2.6 | 9.6 | 0.00 | 0.00 | 0.00 | 34 | 1005.1 |
| 20260505203110 | 51 | 238 | 0.9 | 7.0 | 0.00 | 0.00 | 0.00 | 29 | 1005.1 |
| 20260505201507 | 49 | 262 | 0.9 | 10.4 | 0.00 | 0.00 | 0.00 | 30 | 1005.3 |
| 20260505200006 | 49 | 50 | 0.0 | 7.0 | 0.00 | 0.00 | 0.00 | 30 | 1005.1 |
| 20260505194506 | 49 | 205 | 2.6 | 7.8 | 0.00 | 0.00 | 0.00 | 30 | 1005.2 |
| 20260505193003 | 50 | 3 | 1.7 | 7.0 | 0.00 | 0.00 | 0.00 | 29 | 1005.2 |
| 20260505191501 | 48 | 118 | 0.0 | 7.0 | 0.00 | 0.00 | 0.00 | 32 | 1005.4 |
| 20260505190001 | 48 | 129 | 1.7 | 6.1 | 0.00 | 0.00 | 0.00 | 35 | 1005.3 |
| 20260505184601 | 49 | 79 | 0.0 | 5.2 | 0.00 | 0.00 | 0.00 | 38 | 1005.4 |
| 20260505183059 | 49 | 250 | 0.9 | 4.3 | 0.00 | 0.00 | 0.00 | 35 | 1005.3 |
| 20260505181641 | 49 | 160 | 2.6 | 7.0 | 0.00 | 0.00 | 0.00 | 36 | 1005.3 |
| 20260505180105 | 48 | 117 | 1.7 | 8.7 | 0.00 | 0.00 | 0.00 | 39 | 1005.5 |
| 20260505174554 | 47 | 134 | 1.7 | 5.2 | 0.00 | 0.00 | 0.00 | 39 | 1005.7 |
| 20260505173052 | 47 | 245 | 2.6 | 7.0 | 0.00 | 0.00 | 0.00 | 39 | 1005.7 |
| 20260505171600 | 48 | 103 | 2.6 | 7.8 | 0.00 | 0.00 | 0.00 | 38 | 1005.6 |
| 20260505170052 | 49 | 114 | 1.7 | 7.0 | 0.00 | 0.00 | 0.00 | 38 | 1005.6 |
| 20260505164550 | 48 | 32 | 0.9 | 8.7 | 0.00 | 0.00 | 0.00 | 38 | 1005.4 |
| 20260505163048 | 47 | 253 | 0.9 | 6.1 | 0.00 | 0.00 | 0.00 | 39 | 1005.5 |
| 20260505161549 | 46 | 78 | 0.9 | 7.8 | 0.00 | 0.00 | 0.00 | 38 | 1005.4 |
| 20260505153042 | 43 | 237 | 0.0 | 2.6 | 0.00 | 0.00 | 0.00 | 45 | 1006.1 |
| 20260505151531 | 41 | 245 | 0.0 | 2.6 | 0.00 | 0.00 | 0.00 | 47 | 1006.0 |
| 20260505124514 | 30 | 66 | 0.0 | 0.0 | 0.00 | 0.01 | 0.00 | 76 | 1008.2 |
| 20260505123011 | 31 | 66 | 0.0 | 0.0 | 0.00 | 0.01 | 0.00 | 77 | 1008.3 |
| 20260505121510 | 31 | 66 | 0.0 | 0.0 | 0.00 | 0.01 | 0.00 | 76 | 1008.1 |
| 20260505120009 | 32 | 66 | 0.0 | 0.0 | 0.00 | 0.01 | 0.00 | 74 | 1007.8 |
| 20260505114509 | 32 | 55 | 0.0 | 0.9 | 0.00 | 0.01 | 0.00 | 76 | 1007.7 |
| 20260505113007 | 32 | 79 | 0.0 | 0.0 | 0.00 | 0.01 | 0.00 | 77 | 1007.8 |
| 20260505111506 | 32 | 46 | 0.0 | 1.7 | 0.00 | 0.01 | 0.00 | 73 | 1007.5 |
| 20260505101503 | 32 | 51 | 0.0 | 0.0 | 0.00 | 0.01 | 0.00 | 73 | 1007.9 |
| 20260505100100 | 32 | 51 | 0.0 | 0.0 | 0.00 | 0.01 | 0.00 | 73 | 1007.7 |
| 20260505094558 | 33 | 51 | 0.0 | 0.0 | 0.00 | 0.02 | 0.00 | 73 | 1007.6 |
| 20260505093057 | 33 | 51 | 0.0 | 0.0 | 0.00 | 0.02 | 0.00 | 70 | 1007.5 |
| 20260505091558 | 33 | 46 | 0.0 | 0.0 | 0.00 | 0.02 | 0.00 | 71 | 1007.9 |
| 20260505090058 | 33 | 46 | 0.0 | 0.0 | 0.00 | 0.02 | 0.00 | 70 | 1008.0 |
| 20260505084602 | 33 | 46 | 0.0 | 0.0 | 0.00 | 0.03 | 0.00 | 68 | 1007.9 |
| 20260505083105 | 33 | 46 | 0.0 | 0.9 | 0.00 | 0.03 | 0.00 | 69 | 1008.0 |
| 20260505081552 | 34 | 46 | 0.0 | 0.0 | 0.00 | 0.03 | 0.00 | 70 | 1008.4 |
| 20260505080055 | 34 | 46 | 0.0 | 0.0 | 0.00 | 0.03 | 0.00 | 72 | 1008.4 |
| 20260505074550 | 34 | 46 | 0.0 | 0.0 | 0.00 | 0.06 | 0.00 | 70 | 1008.3 |
| 20260505073057 | 34 | 46 | 0.0 | 0.0 | 0.00 | 0.06 | 0.00 | 70 | 1008.5 |
| 20260505071547 | 35 | 46 | 0.0 | 0.0 | 0.00 | 0.06 | 0.00 | 70 | 1008.5 |
| 20260505070044 | 35 | 223 | 0.0 | 0.9 | 0.00 | 0.06 | 0.00 | 69 | 1008.2 |
| 20260505064608 | 35 | 90 | 0.0 | 0.0 | 0.00 | 0.07 | 0.00 | 67 | 1008.3 |
| 20260505063040 | 36 | 90 | 0.0 | 0.0 | 0.00 | 0.07 | 0.00 | 70 | 1008.1 |
| 20260505061537 | 36 | 90 | 0.0 | 0.9 | 0.00 | 0.07 | 0.00 | 69 | 1007.8 |
| 20260505060034 | 36 | 90 | 0.0 | 0.0 | 0.00 | 0.07 | 0.00 | 65 | 1007.6 |
| 20260505054545 | 37 | 90 | 0.0 | 0.0 | 0.00 | 0.08 | 0.07 | 66 | 1007.6 |
| 20260505053034 | 37 | 90 | 0.0 | 0.9 | 0.00 | 0.08 | 0.07 | 66 | 1007.8 |
| 20260505051532 | 37 | 90 | 0.0 | 0.0 | 0.00 | 0.08 | 0.07 | 63 | 1007.8 |
| 20260505041529 | 38 | 90 | 0.0 | 0.0 | 0.00 | 0.08 | 0.07 | 58 | 1007.9 |
| 20260505040031 | 39 | 90 | 0.0 | 0.0 | 0.00 | 0.08 | 0.07 | 56 | 1008.1 |
| 20260505034533 | 39 | 90 | 0.0 | 0.0 | 0.00 | 0.08 | 0.07 | 55 | 1007.9 |
| 20260505033030 | 40 | 90 | 0.0 | 0.0 | 0.00 | 0.08 | 0.07 | 53 | 1007.5 |
| 20260505031527 | 40 | 90 | 0.0 | 0.0 | 0.00 | 0.08 | 0.07 | 52 | 1007.3 |